Olympia, WA
on Saturday, February 9, 2013

Saturday
Previous Day Next Day
Daily Summary
 ActualAverageRecord
Temperature
Mean Temperature °F 41°F  
Max Temperature 50°F 49°F 63°F (1963)
Min Temperature 28°F 33°F 12°F (1989)
Degree Days
Heating Degree Days 26 24  
Month to date heating degree days 210 217  
Since 1 July heating degree days 3248 3268  
Cooling Degree Days 0 0  
Month to date cooling degree days 0 0  
Year to date cooling degree days 0 0  
Moisture
Dew Point 32°F   
Average Humidity 78    
Maximum Humidity 100    
Minimum Humidity 56    
Precipitation
Precipitation 0.00 in 0.20 in 3.64 in (1951)
Month to date precipitation 0.55 1.83  
Year to date precipitation 4.46 9.67  
Wind
Wind Speed 2 mph   
Max Wind Speed 7 mph   
Max Gust Speed 9 mph   
Visibility 6 miles   
Events Fog   

Key: T is trace of precipitation, MM is missing value
Source: NWS Daily Summary
Time(PST)TemperatureDew PointHumidity Pressure Visibility Wind DirectionWind SpeedGust SpeedPrecipitationEvents Conditions
12:54 AM 33.1°F 30.9°F 92% 30.29 in 5.0 miles Calm Calm - N/A   Mostly Cloudy
1:54 AM 33.1°F 32.0°F 96% 30.29 in 8.0 miles Calm Calm - N/A   Overcast
2:54 AM 33.1°F 32.0°F 96% 30.30 in 7.0 miles Calm Calm - N/A   Overcast
3:54 AM 30.9°F 30.0°F 96% 30.29 in 6.0 miles Calm Calm - N/A   Partly Cloudy
4:54 AM 30.0°F 28.9°F 96% 30.29 in 7.0 miles Calm Calm - N/A   Partly Cloudy
5:15 AM 28.9°F 28.9°F 100% 30.28 in 5.0 miles Calm Calm - N/A   Scattered Clouds
5:20 AM 30.0°F 28.9°F 96% 30.28 in 2.5 miles Calm Calm - N/A   Mostly Cloudy
5:22 AM 30.0°F 30.0°F 100% 30.28 in 1.2 miles Calm Calm - N/A   Mostly Cloudy
5:30 AM 28.9°F 28.9°F 100% 30.28 in 0.5 miles Calm Calm - N/A Fog Light Freezing Fog
5:39 AM 28.9°F 28.0°F 96% 30.27 in 1.8 miles South 3.5 mph - N/A   Overcast
5:41 AM 28.0°F 28.0°F 100% 30.27 in 3.0 miles South 3.5 mph - N/A   Overcast
5:54 AM 28.9°F 28.0°F 96% 30.28 in 3.0 miles Calm Calm - N/A   Overcast
6:02 AM 30.0°F 28.9°F 96% 30.27 in 2.0 miles Calm Calm - N/A   Mostly Cloudy
6:12 AM 28.0°F 28.0°F 100% 30.28 in 1.2 miles Calm Calm - N/A   Mostly Cloudy
6:25 AM 28.9°F 28.0°F 96% 30.28 in 2.0 miles Calm Calm - N/A   Mostly Cloudy
6:32 AM 28.9°F 28.9°F 100% 30.28 in 6.0 miles Calm Calm - N/A   Overcast
6:39 AM 30.0°F 28.9°F 96% 30.28 in 1.8 miles Calm Calm - N/A   Overcast
6:43 AM 30.0°F 28.9°F 96% 30.28 in 0.8 miles Calm Calm - N/A   Overcast
6:54 AM 30.0°F 30.0°F 100% 30.29 in 0.5 miles Calm Calm - N/A Fog Light Freezing Fog
7:22 AM 30.2°F 28.4°F 93% 30.27 in 1.5 miles SE 3.5 mph - N/A   Overcast
7:26 AM 30.0°F 28.9°F 96% 30.27 in 2.0 miles SSE 3.5 mph - N/A   Overcast
7:28 AM 30.0°F 28.9°F 96% 30.27 in 1.2 miles South 3.5 mph - N/A   Overcast
7:33 AM 28.9°F 28.9°F 100% 30.28 in 0.2 miles Calm Calm - N/A Fog Light Freezing Fog
7:54 AM 30.0°F 28.9°F 96% 30.30 in 0.2 miles Calm Calm - N/A Fog Light Freezing Fog
8:35 AM 30.0°F 30.0°F 100% 30.28 in 1.2 miles Calm Calm - N/A   Overcast
8:37 AM 30.0°F 30.0°F 100% 30.28 in 2.0 miles Calm Calm - N/A   Overcast
8:46 AM 30.9°F 30.9°F 100% 30.28 in 1.5 miles Calm Calm - N/A   Overcast
8:54 AM 30.9°F 30.9°F 100% 30.29 in 0.5 miles Calm Calm - N/A Fog Light Freezing Fog
9:27 AM 33.1°F 33.1°F 100% 30.29 in 8.0 miles Calm Calm - N/A   Scattered Clouds
9:54 AM 35.1°F 34.0°F 96% 30.29 in 8.0 miles SSE 3.5 mph - N/A   Clear
10:54 AM 42.1°F 36.0°F 79% 30.30 in 10.0 miles Calm Calm - N/A   Clear
11:54 AM 45.0°F 36.0°F 71% 30.29 in 10.0 miles Calm Calm - N/A   Clear
12:54 PM 48.0°F 35.1°F 61% 30.27 in 10.0 miles Variable 4.6 mph - N/A   Scattered Clouds
1:54 PM 48.9°F 34.0°F 56% 30.26 in 10.0 miles SSW 4.6 mph - N/A   Mostly Cloudy
2:54 PM 48.9°F 34.0°F 56% 30.26 in 10.0 miles Calm Calm - N/A   Mostly Cloudy
3:54 PM 48.9°F 34.0°F 56% 30.27 in 10.0 miles Calm Calm - N/A   Mostly Cloudy
4:54 PM 46.9°F 37.0°F 68% 30.28 in 10.0 miles Calm Calm - N/A   Overcast
5:54 PM 46.0°F 37.9°F 73% 30.29 in 10.0 miles NNE 4.6 mph - N/A   Overcast
6:54 PM 46.0°F 37.0°F 71% 30.29 in 10.0 miles East 3.5 mph - N/A   Overcast
7:54 PM 45.0°F 37.0°F 74% 30.30 in 10.0 miles East 4.6 mph - N/A   Overcast
8:54 PM 44.1°F 36.0°F 73% 30.31 in 10.0 miles Calm Calm - N/A   Overcast
9:54 PM 43.0°F 37.0°F 80% 30.32 in 10.0 miles NNE 4.6 mph - N/A   Overcast
10:54 PM 42.1°F 37.0°F 82% 30.33 in 10.0 miles NNE 4.6 mph - N/A   Overcast
11:54 PM 42.1°F 37.9°F 85% 30.35 in 10.0 miles North 4.6 mph - N/A   Overcast
Moon Phase
Feb. 09 Feb. 10 Feb. 17 Feb. 25 Mar. 04
Sunrise:07:24 AM (PST) Moon Rise:06:39 AM (PST)2/9
Sunset:05:27 PM (PST) Moon Set:05:19 PM (PST)2/9

Copyright © 2014 The Weather Underground, Inc.